N3FWE Weather Reports


time (UTC)temp
F
wind
direction
speed
knots
gust
knots
rain 1hr
in
rain 24hr
in
rain mn
in
humidity
%
barometer
mb
20260507084959 52 309 0.9 4.3 0.00 0.24 0.00 56 1012.1
20260507083959 52 347 0.9 5.2 0.00 0.24 0.00 55 1012.1
20260507082959 52 313 0.0 2.6 0.00 0.24 0.00 57 1012.1
20260507081959 53 317 0.9 3.5 0.00 0.24 0.00 56 1012.1
20260507080959 53 311 0.9 7.0 0.00 0.24 0.00 56 1012.2
20260507075959 53 5 0.9 7.0 0.00 0.24 0.00 55 1012.2
20260507074959 53 267 0.9 3.5 0.00 0.24 0.00 57 1012.2
20260507073959 53 308 1.7 3.5 0.00 0.24 0.00 58 1012.4
20260507072959 53 18 0.9 1.7 0.00 0.24 0.00 60 1012.3
20260507071959 53 15 2.6 6.1 0.00 0.24 0.00 56 1012.4
20260507070959 53 259 0.9 6.1 0.00 0.24 0.00 57 1012.4
20260507065959 54 286 2.6 7.0 0.00 0.24 0.00 58 1012.4
20260507064959 54 232 1.7 6.1 0.00 0.24 0.00 59 1012.5
20260507063959 54 71 1.7 7.8 0.00 0.24 0.00 57 1012.5
20260507062958 54 280 1.7 7.0 0.00 0.24 0.00 60 1012.2
20260507061959 54 279 1.7 8.7 0.00 0.24 0.00 62 1012.4
20260507060959 54 284 2.6 8.7 0.00 0.24 0.00 64 1012.3
20260507055959 54 273 1.7 7.0 0.00 0.24 0.00 69 1012.2
20260507055000 55 355 1.7 12.2 0.00 0.24 0.00 72 1012.2
20260507053958 55 277 1.7 7.8 0.00 0.24 0.00 73 1011.9
20260507052959 55 317 0.9 5.2 0.00 0.24 0.00 72 1012.3
20260507051959 55 263 0.9 4.3 0.00 0.24 0.00 74 1012.2
20260507050958 55 338 0.9 4.3 0.00 0.24 0.00 74 1012.1
20260507045959 55 342 0.9 4.3 0.00 0.24 0.00 75 1012.1
20260507044958 56 325 1.7 5.2 0.00 0.24 0.00 75 1012.1
20260507044000 56 329 0.9 3.5 0.00 0.24 0.00 75 1012.2
20260507043000 56 314 1.7 3.5 0.00 0.24 0.00 75 1012.6
20260507042000 56 327 1.7 7.8 0.00 0.24 0.00 73 1012.1
20260507041000 56 360 1.7 7.8 0.00 0.24 0.00 71 1012.1
20260507040005 56 286 1.7 7.8 0.00 0.24 0.00 73 1012.1
20260507035000 57 5 0.9 7.0 0.00 0.24 0.24 74 1012.2
20260507034000 57 336 1.7 6.1 0.00 0.24 0.24 74 1011.8
20260507033001 57 271 1.7 5.2 0.00 0.24 0.24 74 1011.9
20260507032001 57 304 0.9 3.5 0.00 0.24 0.24 75 1011.8
20260507031000 57 267 0.9 3.5 0.00 0.24 0.24 76 1011.5
20260507030001 57 300 1.7 6.1 0.00 0.24 0.24 75 1012.0
20260507025000 57 342 1.7 5.2 0.00 0.24 0.24 75 1011.8
20260507024000 58 332 1.7 4.3 0.00 0.24 0.24 74 1011.8
20260507023000 58 329 2.6 9.6 0.00 0.24 0.24 75 1012.0
20260507022001 58 302 1.7 11.3 0.00 0.24 0.24 77 1011.8
20260507021001 58 23 2.6 7.8 0.00 0.24 0.24 77 1011.7
20260507020000 58 344 2.6 7.8 0.00 0.24 0.24 77 1011.7
20260507015001 59 14 3.5 12.2 0.00 0.24 0.24 77 1011.4
20260507014000 59 11 1.7 5.2 0.00 0.24 0.24 76 1011.5
20260507013000 59 337 1.7 6.1 0.00 0.24 0.24 76 1011.6
20260507012000 60 255 1.7 7.0 0.00 0.24 0.24 77 1011.6
20260507011001 60 31 0.9 2.6 0.00 0.24 0.24 77 1011.5
20260507010001 60 258 0.9 4.3 0.00 0.24 0.24 78 1011.3
20260507005000 60 342 1.7 6.1 0.00 0.24 0.24 78 1011.3
20260507003959 60 273 2.6 7.8 0.00 0.24 0.24 77 1011.2
20260507002959 61 258 2.6 7.0 0.00 0.24 0.24 80 1011.1
20260507001959 61 246 1.7 7.8 0.00 0.24 0.24 79 1010.8
20260507000959 61 310 1.7 7.0 0.00 0.24 0.24 78 1010.6
20260506235959 62 23 1.7 6.1 0.00 0.24 0.24 78 1010.4
20260506234959 62 19 1.7 8.7 0.00 0.24 0.24 78 1009.9
20260506234001 62 349 0.9 4.3 0.00 0.24 0.24 80 1009.6
20260506232959 62 286 0.9 7.0 0.00 0.24 0.24 81 1009.4
20260506232000 63 252 2.6 7.0 0.00 0.24 0.24 81 1009.2
20260506230959 63 19 1.7 7.0 0.00 0.24 0.24 81 1009.2
20260506230000 63 333 2.6 8.7 0.00 0.24 0.24 81 1009.0
20260506224959 64 319 1.7 11.3 0.00 0.24 0.24 83 1009.1
20260506223959 64 276 1.7 7.0 0.00 0.24 0.24 85 1009.1
20260506222959 64 306 1.7 7.8 0.00 0.24 0.24 86 1008.9
20260506221959 65 251 0.9 4.3 0.00 0.24 0.24 91 1008.8
20260506221001 65 275 1.7 6.1 0.00 0.24 0.24 90 1008.7
20260506220000 66 256 1.7 6.1 0.00 0.24 0.24 89 1008.6
20260506214959 66 267 0.9 5.2 0.00 0.24 0.24 88 1008.5
20260506213959 66 277 0.9 6.1 0.00 0.24 0.24 88 1008.3
20260506212959 66 256 1.7 3.5 0.00 0.24 0.24 89 1008.0
20260506212000 66 246 2.6 6.1 0.00 0.24 0.24 88 1007.9
20260506211000 66 270 1.7 5.2 0.00 0.24 0.24 90 1007.9
20260506205959 66 289 2.6 6.1 0.00 0.24 0.24 91 1007.7
20260506205000 66 257 3.5 8.7 0.00 0.24 0.24 92 1007.8
20260506203959 65 246 1.7 7.0 0.00 0.24 0.24 93 1007.8
20260506202959 65 256 0.9 7.0 0.00 0.24 0.24 94 1007.6
20260506201959 65 259 0.9 3.5 0.00 0.24 0.24 94 1007.7
20260506201000 65 262 0.9 5.2 0.00 0.24 0.24 95 1007.7
20260506195959 64 213 0.0 3.5 0.00 0.24 0.24 96 1007.7
20260506194959 64 288 0.0 0.9 0.00 0.24 0.24 95 1007.8
20260506193959 63 288 0.0 0.0 0.00 0.24 0.24 96 1007.9
20260506192959 63 288 0.0 0.0 0.00 0.24 0.24 95 1008.1
20260506191959 63 288 0.0 0.0 0.00 0.24 0.24 95 1008.1
20260506190959 63 288 0.0 0.0 0.00 0.24 0.24 95 1008.2
20260506185959 63 288 0.0 0.0 0.00 0.24 0.24 95 1008.2
20260506184959 62 289 0.0 0.0 0.00 0.24 0.24 95 1008.2
20260506183959 62 289 0.0 0.9 0.00 0.24 0.24 95 1008.4
20260506182959 62 289 0.9 3.5 0.01 0.24 0.24 95 1008.4
20260506181959 62 246 0.0 0.0 0.01 0.24 0.24 95 1008.4
20260506180959 62 249 0.0 0.0 0.02 0.24 0.24 95 1008.3
20260506180000 62 249 0.9 1.7 0.02 0.24 0.24 95 1008.5
20260506174959 62 223 0.0 2.6 0.02 0.24 0.24 95 1008.5
20260506173959 62 246 0.0 1.7 0.02 0.24 0.24 94 1008.5
20260506172959 62 252 0.0 2.6 0.01 0.23 0.23 94 1008.4
20260506171959 61 248 0.0 0.9 0.01 0.23 0.23 94 1008.5
20260506170959 61 248 0.9 3.5 0.00 0.22 0.22 94 1008.6
20260506170000 61 238 0.0 1.7 0.00 0.22 0.22 93 1008.5
20260506164959 61 242 0.0 0.9 0.00 0.22 0.22 93 1008.5
20260506163959 61 242 0.9 2.6 0.00 0.22 0.22 93 1008.5
20260506162959 61 203 0.0 1.7 0.00 0.22 0.22 93 1008.6
20260506162000 61 201 0.0 0.9 0.00 0.22 0.22 93 1008.7
20260506160959 61 201 0.9 5.2 0.00 0.22 0.22 93 1008.6
20260506160000 61 204 1.7 3.5 0.01 0.22 0.22 93 1008.5
20260506154959 61 204 0.9 3.5 0.04 0.22 0.22 93 1008.4
20260506153959 61 203 1.7 3.5 0.06 0.22 0.22 93 1008.5
20260506152959 61 210 2.6 7.8 0.07 0.22 0.22 93 1008.6
20260506151959 61 182 1.7 4.3 0.09 0.22 0.22 93 1008.4
20260506150959 61 205 0.9 3.5 0.13 0.22 0.22 92 1008.4
20260506145959 61 208 0.9 2.6 0.13 0.21 0.21 92 1008.7
20260506144959 61 208 0.9 3.5 0.11 0.18 0.18 92 1008.8
20260506143959 61 205 0.9 3.5 0.09 0.16 0.16 91 1008.9
20260506142959 61 207 0.9 4.3 0.09 0.15 0.15 91 1009.2
20260506141959 61 202 1.7 5.2 0.09 0.13 0.13 90 1009.3
20260506140959 61 209 2.6 5.2 0.05 0.09 0.09 90 1009.2
20260506135959 61 238 0.9 4.3 0.05 0.08 0.08 90 1009.0
20260506134958 61 195 0.9 1.7 0.04 0.07 0.07 90 1008.9
20260506133959 61 207 0.9 2.6 0.04 0.07 0.07 89 1008.8
20260506132959 61 222 0.9 3.5 0.03 0.06 0.06 89 1008.8
20260506131959 61 213 0.9 3.5 0.02 0.04 0.04 88 1008.7
20260506130959 61 215 0.9 3.5 0.02 0.04 0.04 88 1009.1
20260506125959 61 214 0.0 3.5 0.02 0.03 0.03 88 1009.0
20260506124959 61 228 0.0 0.0 0.02 0.03 0.03 88 1008.9
20260506123959 61 228 0.0 0.9 0.02 0.03 0.03 88 1009.0
20260506122959 61 228 0.0 1.7 0.03 0.03 0.03 86 1009.2
20260506121959 61 228 0.0 1.7 0.02 0.02 0.02 85 1009.3
20260506121000 62 228 0.0 0.9 0.02 0.02 0.02 84 1009.4
20260506115959 62 228 0.0 1.7 0.01 0.01 0.01 83 1009.5
20260506114959 63 229 0.9 1.7 0.01 0.01 0.01 81 1009.5
20260506113959 64 227 0.9 2.6 0.01 0.01 0.01 79 1009.3
20260506112959 65 223 2.6 6.1 0.00 0.00 0.00 75 1009.1
20260506111959 65 219 1.7 8.7 0.00 0.00 0.00 71 1008.9
20260506110959 66 219 1.7 2.6 0.00 0.00 0.00 70 1008.8
20260506105959 66 293 1.7 3.5 0.00 0.00 0.00 69 1008.7
20260506104959 67 190 1.7 4.3 0.00 0.00 0.00 68 1008.4
20260506103958 67 205 2.6 6.1 0.00 0.00 0.00 64 1008.4
20260506102957 67 203 1.7 5.2 0.00 0.00 0.00 64 1008.2
20260506101957 67 207 0.9 4.3 0.00 0.00 0.00 64 1008.3
20260506100957 67 206 1.7 3.5 0.00 0.00 0.00 63 1008.2
20260506095958 67 275 1.7 7.0 0.00 0.00 0.00 63 1008.0
20260506094958 67 247 0.9 3.5 0.00 0.00 0.00 62 1008.0
20260506093957 68 244 0.9 4.3 0.00 0.00 0.00 62 1007.9
20260506092958 68 205 1.7 3.5 0.00 0.00 0.00 62 1008.0
20260506091957 68 225 1.7 5.2 0.00 0.00 0.00 62 1008.1
20260506090958 68 238 1.7 4.3 0.00 0.00 0.00 61 1008.3
20260506085958 68 237 1.7 6.1 0.00 0.00 0.00 61 1008.3